Regional Weather Roundup
Issued by NWS

Home | Current Version | Previous Version | Text Only | Print | Product List | Glossary Off
Versions: 1 2 3 4 5 6 7 8 9 10 11 12 13 14 15 16 17 18 19 20 21 22 23 24 25 26 27 28 29 30 31 32 33 34 35 36 37 38 39 40 41 42 43 44 45 46 47 48 49 50

000
ASUS43 KLMK 240602
RWRKY
KENTUCKY REGIONAL WEATHER ROUNDUP
NATIONAL WEATHER SERVICE LOUISVILLE KY
100 AM EST SAT FEB 24 2018

NOTE "FAIR" INDICATES FEW OR NO CLOUDS BELOW 12,000 FEET
WITH NO SIGNIFICANT WEATHER AND/OR OBSTRUCTIONS TO VISIBILITY.

KYZ001>023-026-027-061>063-070>075-240700-
WESTERN AND SOUTH CENTRAL KENTUCKY

CITY           SKY/WX    TMP DP  RH WIND       PRES   REMARKS
PADUCAH        CLOUDY    51  48  89 NE3       30.16F
HENDERSON      CLOUDY    49  47  93 CALM      30.19S
OWENSBORO      LGT RAIN  51  49  92 NW6       30.19F
HOPKINSVILLE   CLOUDY    57  57 100 E3        30.15F
BOWLING GREEN  CLOUDY    58  58 100 CALM      30.18R FOG
GLASGOW        NOT AVBL
$$

KYZ024-025-028>034-038-045-046-053-240700-
NORTH CENTRAL KENTUCKY

CITY           SKY/WX    TMP DP  RH WIND       PRES   REMARKS
LOUISVILLE/SDF CLOUDY    55  51  86 VRB5      30.17S
LOUISVILLE/LOU LGT RAIN  54  53  97 CALM      30.17S
FORT KNOX      LGT RAIN  55  55 100 CALM      30.16F
$$

KYZ035>037-039>044-047>052-055>060-089>105-240700-
NORTHEAST KENTUCKY

CITY           SKY/WX    TMP DP  RH WIND       PRES   REMARKS
LEXINGTON      CLOUDY    60  57  89 NE3       30.18S
COVINGTON      LGT RAIN  53  51  93 CALM      30.18S
FRANKFORT      CLOUDY    57  54  89 E3        30.16F
$$

KYZ054-064>069-076>088-106>120-240700-
SOUTHEAST KENTUCKY

CITY           SKY/WX    TMP DP  RH WIND       PRES   REMARKS
JACKSON        CLOUDY    62  58  86 NW8       30.18S
LONDON         FAIR      60  58  92 SE3       30.17F
SOMERSET       NOT AVBL
MIDDLESBORO    FAIR      68  55  63 S7        30.20F
MONTICELLO     NOT AVBL
$$





USA.gov is the U.S. government's official web portal to all federal, state and local government web resources and services.